Location: Capel Gartheli
(52.1833°N, 4.0667°W)
Time: 23:50:24
(UTC+00:00)

Cosmos 2333 Rocket - Pass Details

Date: 18 February 2020
Orbit: 841 x 860 km, 70.8° (Epoch: 09 April)

Event Time Altitude Azimuth Distance (km) Brightness Sun altitude
Exits shadow 06:43:55 - 309° (NW) 2,964 4.5 -7.2°
Reaches altitude 10° 06:46:24 10° 329° (NNW) 2,494 4.3 -6.8°
Maximum altitude 06:48:35 12° 351° (N) 2,342 4.3 -6.5°
Drops below altitude 10° 06:50:47 10° 14° (NNE) 2,490 4.7 -6.2°
Sets 06:55:04 0° 45° (NE) 3,422 5.9 -5.5°
